Flag for India Weather past 2 weeks in Vasai-Virar, Maharashtra, India

Now
82 °F

Broken clouds.


Feels Like: 89 °F
Forecast: 80 / 84 °F
Wind: 10 mph from West

Location: Bombay / Santacruz

Current Time: Aug 3, 2015 at 8:41:29 AM

Latest Report: Aug 3, 2015 at 7:40 AM


Visibility: 4 mi

Pressure: 29.80 "Hg

Humidity: 79%

Dew point: 75 °F

Location of Vasai-VirarLocation

Historic Weather in Vasai-Virar — Graph

°F

Vasai-Virar temperature yesterday

Maximum temperature yesterday: 88 °F (at 10:40 AM)
Minimum temperature yesterday: 82 °F (at 12:40 AM)
Average temperature yesterday: 85 °F

Past Weeks' High & Low Weather Summary

 TemperatureHumidityPressure
High91 °F (Jul 19, 3:40 PM)100% (Jul 21, 8:40 AM)29.86 "Hg (Jul 21, 8:40 AM)
Low77 °F (Jul 21, 8:40 AM)63% (Jul 19, 3:40 PM)29.56 "Hg (Jul 21, 3:10 AM)
Average83 °F84%29.70 "Hg
* Reported Jul 19 6:40 AM — Aug 3 6:40 AM, Vasai-Virar, Weather by CustomWeather, © 2015

Note: Actual official high and low records may vary slightly from our data, if they occured in-between our weather recording intervals... More about our weather records

Advertising

Vasai-Virar weather history for previous 24 hours

 ConditionsComfort  
Time TempWeatherWind HumidityBarometerVisibility
6:40 AM
Mon, Aug 3
82 °FPartly cloudy.13 mph84%29.77 "Hg4 mi
5:40 AM82 °FPassing clouds.14 mph84%29.77 "Hg2 mi
5:10 AM82 °FPassing clouds.13 mph84%29.77 "Hg2 mi
4:40 AM82 °FPassing clouds.12 mph84%29.77 "Hg2 mi
4:10 AM82 °FPassing clouds.12 mph84%29.77 "Hg2 mi
3:40 AM82 °FPassing clouds.12 mph84%29.77 "Hg2 mi
3:10 AM82 °FPassing clouds.12 mph84%29.77 "Hg2 mi
2:40 AM82 °FPassing clouds.9 mph84%29.77 "Hg2 mi
2:10 AM82 °FPassing clouds.13 mph84%29.77 "Hg2 mi
1:40 AM82 °FPassing clouds.10 mph84%29.77 "Hg2 mi
1:10 AM82 °FPassing clouds.12 mph84%29.80 "Hg2 mi
12:40 AM82 °FPassing clouds.10 mph84%29.80 "Hg2 mi
12:10 AM82 °FPassing clouds.14 mph84%29.80 "Hg2 mi
11:40 PM
Sun, Aug 2
82 °FPassing clouds.12 mph84%29.80 "Hg2 mi
11:10 PM82 °FPassing clouds.10 mph84%29.83 "Hg2 mi
10:40 PM84 °FPassing clouds.10 mph79%29.83 "Hg2 mi
9:40 PM84 °FPassing clouds.9 mph79%29.80 "Hg2 mi
9:10 PM84 °FPassing clouds.10 mph79%29.80 "Hg2 mi
8:40 PM84 °FPassing clouds.N/A74%29.80 "Hg2 mi
8:10 PM84 °FPassing clouds.N/A74%29.80 "Hg2 mi
7:40 PM84 °FScattered clouds.10 mph79%29.80 "Hg2 mi
7:10 PM84 °FScattered clouds.9 mph79%29.80 "Hg3 mi
6:10 PM84 °FScattered clouds.8 mph84%29.80 "Hg2 mi
5:40 PM86 °FScattered clouds.10 mph79%29.77 "Hg4 mi
5:10 PM86 °FScattered clouds.9 mph79%29.77 "Hg4 mi
4:40 PM84 °FScattered clouds.8 mph84%29.80 "Hg4 mi
4:10 PM86 °FScattered clouds.12 mph75%29.80 "Hg4 mi
3:40 PM88 °FScattered clouds.10 mph70%29.80 "Hg4 mi
3:10 PM88 °FScattered clouds.13 mph70%29.80 "Hg4 mi
2:40 PM86 °FScattered clouds.13 mph75%29.80 "Hg4 mi
2:10 PM88 °FScattered clouds.12 mph70%29.80 "Hg4 mi
1:40 PM86 °FPassing clouds.9 mph75%29.83 "Hg4 mi
1:10 PM88 °FScattered clouds.12 mph70%29.83 "Hg4 mi
12:40 PM88 °FBroken clouds.9 mph70%29.83 "Hg4 mi
12:10 PM86 °FBroken clouds.12 mph70%29.86 "Hg4 mi
11:40 AM86 °FBroken clouds.18 mph79%29.86 "Hg4 mi
11:10 AM88 °FScattered clouds.15 mph75%29.86 "Hg4 mi
10:40 AM88 °FScattered clouds.13 mph75%29.86 "Hg4 mi
10:10 AM86 °FBroken clouds.12 mph75%29.86 "Hg4 mi
9:40 AM86 °FScattered clouds.13 mph75%29.86 "Hg4 mi
8:10 AM84 °FBroken clouds.15 mph79%29.83 "Hg2 mi
Weather by CustomWeather, © 2015

See weather overviewHow to use our weather pages